{"data":{"norad_id":53595,"epoch":"2026-09-19T22:11:56.790240Z","epoch_age_seconds":127901,"freshness":"FRESH","line1":"1 53595U 22104H   26262.92496285  .00000730  00000+0  35282-4 0  9992","line2":"2 53595  53.1595  78.4794 0001189  87.6390 272.4748 15.31700773225454","mean_motion":15.31700773,"eccentricity":0.0001189,"inclination_deg":53.1595,"raan_deg":78.4794,"arg_perigee_deg":87.639,"mean_anomaly_deg":272.4748,"bstar":3.5282e-5,"rev_number":22545,"period_min":94.013140515664,"perigee_km":469.92335975308,"apogee_km":471.55202215459,"semimajor_km":6848.8746909538,"source":"CELESTRAK","updated_at":"2026-09-21T09:00:32.935770Z"}}